Showing default

GOES 19, 60133

Orbit data source: Space-Track

GOES 19, 60133 is a payload satellite owned by NOAA (US) in GEO that was launched on Tue, 25 Jun 2024 UTC via an FALCON HEAVY launch vehicle from the Air Force Eastern Test Range (AFETR). Payload-class satellites include a variety of spacecraft equipped with specific instruments for various scientific and technological missions. These include communications satellites like Starlink; space stations such as the ISS; scientific satellites like the Hubble; Earth observation satellites from companies like Planet Labs, Umbra, and HawkEye 360; GPS; miniature CubeSats for education and research; and military/defense satellites.

Loading next visibility...
Identifier
60133, 2024-119A
Orbit
GEO
Last TLE update
17 hours ago
Origin
Manufacturer
LMCSS
Mission
Operational Civil Weather
Bus & Motor
A2100, LEROS-1C
Mass
~5,000 kg wet, 2,925 kg dry
Launch date (UTC)
2024-06-25 (10 months ago)
Launch vehicle
FALCON HEAVY
Launch site
Air Force Eastern Test Range (AFETR)
Object type
Payload
Rocket body
Debris
Shape & HBR
Box + 1 Pan + 1 Rod, 12 m
Radar Cross Section
37.561 m²

Expand to show TLE details & history

TLE from 17 hours ago
0 GOES 19
1 60133U 24119A   25115.08727148 -.00000245  00000-0  00000+0 0  9992
2 60133   0.0216  91.4014 0000357 294.7186 143.4576  1.00267179  3113
Epoch: 2025-04-25T02:05Z
Definitive object data (Epoch: 2025-04-25T02:05:40.255Z)
Latitude
-0.00221°
Longitude
-75.19409°
Altitude
35,788.592 km
Speed
3.075 km/s
True Right ascension
11h 18m 17s
True Declination
0° 00' 08"
Sunlit
Object was in daylight at TLE epoch
Visualization TLE readout
Latitude
-0.00039°
Longitude
177.36998°
Altitude
35,786.214 km
Speed
3.075 km/s
Apparent Right ascension
04h 23m 17s
Apparent Declination
-6° 06' 56"
Sunlit
Object is in daylight
Visualization observer readout
Local Sidereal Time
02:08:54
Azimuth
138.096° SSE
Elevation
34.531°
Doppler factor
1
Orbital elements
Apogee altitude
35,790.462 km
Perigee altitude
35,787.451 km
Semi-major axis
42,167.094 km
Eccentricity
0.0000357
Inclination
0.0216°
RAAN
91.4014°
Arg. of periapsis
294.7186°
True anomaly
143.46004°
Mean anomaly
143.4576°
Eccentric anomaly
143.45882°
Mean motion
0.25066 °/min
BSTAR
Unknown
Orbital period
1436.22 mins
Loading historical data...
60133 neighbors
Loading maneuver chart data...
Loading SW <> Apogee altitude chart data...
Loading historical data...
Loading historical data...
Loading historical data...
Loading historical data...
Loading historical data...
Loading historical data...
Loading historical data...
Other satellites on launch #119 in the year 2024 (2024-06-25 UTC)

GOES 19 Visibility forecast

Observer location: undefined°, undefined°

Span
Click to sort rows by Start time (UTC) header in descending order
Start Az.
Max El. time (UTC)
Max El. Az.
Max El.
End time (UTC)
End Az.
1440 mins2025-04-25 18:53:13.027Z138.109° SSE2025-04-26 15:43:13.027Z138.128° SSE29.548°2025-04-26 18:53:13.027Z138.129° SSE
|